Location: Unspecified
(46.6049°N, 0.0000°E)
Time: 04:07:07
(UTC+00:00)

Altair - All Passes

Search period start: 04 April 2026 00:00
Search period end: 14 April 2026 00:00
Orbit: 1502 x 1682 km, 47.2° (Epoch: 29 March)

Date Brightness Start Highest point End Pass type
(mag) Time Alt. Az. Time Alt. Az. Time Alt. Az.
4 Apr - 00:42:19 10° W 00:46:02 13° WSW 00:49:45 10° SSW visible
4 Apr - 13:55:12 10° SSE 14:01:26 19° SE 14:07:33 10° E daylight
4 Apr - 15:55:08 10° SW 16:04:37 54° SSE 16:13:45 10° ENE daylight
4 Apr - 17:59:15 10° WSW 18:09:03 89° S 18:18:29 10° E daylight
4 Apr - 20:04:22 10° W 20:14:00 87° S 20:23:16 10° ESE visible
4 Apr - 22:09:20 10° WNW 22:18:12 49° SW 22:26:51 10° SE visible
5 Apr - 00:16:24 10° W 00:21:00 15° SW 00:25:35 10° SSW visible
5 Apr - 13:30:40 10° SSE 13:36:21 17° SE 13:41:57 10° E daylight
5 Apr - 15:30:01 10° SW 15:39:26 51° SE 15:48:31 10° ENE daylight
5 Apr - 17:33:57 10° WSW 17:43:48 88° SSE 17:53:15 10° E daylight
5 Apr - 19:39:05 10° W 19:48:45 89° S 19:58:03 10° ESE visible
5 Apr - 21:44:03 10° WNW 21:53:03 52° SW 22:01:48 10° SE visible
5 Apr - 23:50:41 10° W 23:55:57 17° SW 00:01:12 10° SSW visible
6 Apr - 13:06:14 10° SSE 13:11:16 15° SE 13:16:14 10° E daylight
6 Apr - 15:04:55 10° SSW 15:14:14 48° SE 15:23:16 10° ENE daylight
6 Apr - 17:08:41 10° WSW 17:18:32 86° SSE 17:28:01 10° ENE daylight
6 Apr - 19:13:48 10° W 19:23:30 90° NNE 19:32:50 10° ESE visible
6 Apr - 21:18:45 10° WNW 21:27:53 55° SSW 21:36:44 10° SE visible
6 Apr - 23:25:03 10° W 23:30:54 19° SW 23:36:42 10° SSW visible
7 Apr - 12:41:58 10° SSE 12:46:12 13° ESE 12:50:21 10° E daylight
7 Apr - 14:39:50 10° SSW 14:49:04 45° SE 14:58:01 10° ENE daylight
7 Apr - 16:43:24 10° WSW 16:53:17 84° SSE 17:02:48 10° ENE daylight
7 Apr - 18:48:30 10° W 18:58:15 89° N 19:07:37 10° E visible
7 Apr - 20:53:29 10° WNW 21:02:43 58° SSW 21:11:40 10° SE visible
7 Apr - 22:59:30 10° W 23:05:50 21° SW 23:12:06 10° S visible
8 Apr - 12:18:02 10° SE 12:21:08 12° ESE 12:24:11 10° ESE daylight
8 Apr - 14:14:46 10° SSW 14:23:54 42° SE 14:32:45 10° ENE daylight
8 Apr - 16:18:07 10° WSW 16:28:03 82° SSE 16:37:34 10° ENE daylight
8 Apr - 18:23:12 10° W 18:32:59 88° N 18:42:23 10° E daylight
8 Apr - 20:28:12 10° WNW 20:37:33 62° SSW 20:46:34 10° SE visible
8 Apr - 22:34:00 10° W 22:40:46 23° SW 22:47:26 10° S visible
9 Apr - 11:55:14 10° SE 11:56:04 10° ESE 11:56:54 10° ESE daylight
9 Apr - 13:49:44 10° SSW 13:58:44 40° SE 14:07:28 10° ENE daylight
9 Apr - 15:52:51 10° WSW 16:02:47 80° SSE 16:12:20 10° ENE daylight
9 Apr - 17:57:53 10° W 18:07:43 87° N 18:17:09 10° E daylight
9 Apr - 20:02:55 10° WNW 20:12:21 65° SSW 20:21:26 10° SE visible
9 Apr - 22:08:33 10° W 22:15:41 25° SW 22:22:43 10° S visible
10 Apr - 13:24:44 10° SSW 13:33:35 37° SE 13:42:11 10° ENE daylight
10 Apr - 15:27:35 10° WSW 15:37:33 77° SSE 15:47:07 10° ENE daylight
10 Apr - 17:32:35 10° W 17:42:27 86° N 17:51:55 10° E daylight
10 Apr - 19:37:39 10° WNW 19:47:09 68° SSW 19:56:19 10° SE visible
10 Apr - 21:43:07 10° W 21:50:36 28° SW 21:57:57 10° S visible
11 Apr - 12:59:46 10° SSW 13:08:25 34° SE 13:16:51 10° ENE daylight
11 Apr - 15:02:21 10° WSW 15:12:18 74° SSE 15:21:53 10° ENE daylight
11 Apr - 17:07:16 10° W 17:17:10 86° N 17:26:41 10° E daylight
11 Apr - 19:12:22 10° WNW 19:21:57 71° SSW 19:31:10 10° SE visible
11 Apr - 21:17:43 10° WNW 21:25:30 30° SW 21:33:07 10° S visible
12 Apr - 12:34:50 10° SSW 12:43:16 32° SE 12:51:31 10° ENE daylight
12 Apr - 14:37:06 10° WSW 14:47:03 72° SSE 14:56:39 10° ENE daylight
12 Apr - 16:41:58 10° W 16:51:54 86° N 17:01:26 10° E daylight
12 Apr - 18:47:04 10° WNW 18:56:44 74° SSW 19:06:01 10° ESE daylight
12 Apr - 20:52:20 10° WNW 21:00:24 33° SW 21:08:16 10° SSE visible
13 Apr - 12:09:55 10° S 12:18:08 30° SE 12:26:10 10° ENE daylight
13 Apr - 14:11:53 10° SW 14:21:49 69° SSE 14:31:25 10° ENE daylight
13 Apr - 16:16:39 10° W 16:26:38 86° N 16:36:12 10° E daylight
13 Apr - 18:21:47 10° WNW 18:31:31 77° SSW 18:40:51 10° ESE daylight
13 Apr - 20:26:59 10° WNW 20:35:18 35° SW 20:43:22 10° SSE visible
